Location: Doux
(49.5045°N, 4.4321°E)
Time: 13:46:23
(UTC+00:00)

Cosmos 1315 Rocket - Pass Details

Date: 23 May 2024
Orbit: 515 x 542 km, 81.2° (Epoch: 16 June)

Event Time Altitude Azimuth Distance (km) Brightness Sun altitude
Exits shadow 01:39:59 28° 210° (SSW) 1,002 3.5 -14.9°
Maximum altitude 01:41:52 64° 284° (WNW) 588 2.8 -14.7°
Drops below altitude 10° 01:45:46 10° 7° (N) 1,788 6.5 -14.4°
Sets 01:47:58 0° 10° (N) 2,689 7.7 -14.2°
